Volver al catálogo

FENGYUN 1C DEB

ActivoPO
NORAD 32212·DEBRIS·🇨🇳 China

Lanzado May 10, 1999 desde Taiyuan Satellite Launch Center

Loading…

Próximos Pases (próximas 24 horas)

TLE

ActualizadoSource: Space-Track

Época: Sep 14, 2026, 08:05 UTC

1 32212U 99025CVJ 26257.33722640  .00000754  00000-0  22642-3 0  9999
2 32212  99.5941  31.9135 0135314 359.0330  29.9513 14.41189754    15

Sigue FENGYUN 1C DEB en tiempo real con AllMySat

Download on the App Store